Погода в Багдарине

Погода в Багдарине : погода сейчас, прогноз погоды и архив. Всё, что Вы хотите узнать о погоде в Багдарине!

Поиск расширенной информации на нашем сайте:

Другие новости

Новости СМИ2

Главная страница сайта

Новости сайта

03.07.2017

Напоминаем, что на нашем специализированном сайте Метеоцентр.Азия вы можете получить высокодетализированные автоматические прогнозы погоды по пунктам России, СНГ и мира в авиационном формате (включающие направление и скорость ветра, видимость, явления погоды, количество и форму облачности, нижнюю и верхнюю границу облачности).


Погода в Багдарине - сегодня

Время (UTC), дата Ветер
(°,м/с) 
Видим.   Явления Облачность Т
(°С)
Тd
(°С)
f(%) Тe
(°С)
Pmin
(гПа)
dP
(гПа)
Po
(мм)
O2
(г/м3)
Тmin Tmax R s Состояние
почвы
18 21.04.18 тихо ()   н/о    ясно 
-8.1 -9.7 88 -8  1030.8  0.7  689  287           
21 21.04.18 350 (С) н/о    ясно 
-9.3 -10.6 90 -9  1032.7  1.2  690  289           
00 22.04.18 110 (В) 20000 м    3/0 верхняя 
[Ci fib]
+0.5 -6.4 60 +1  1029.1  0.6  690  278  -9.7         
03 22.04.18 130 (ЮВ) 20000 м    10/0 верхняя 
[Ci fib]
+12 -8.3 23 +12  1022.9  -1.5  689  267           
06 22.04.18 280 (З) 20000 м    10/0 верхняя 
[Ci sp]
+16.1 -12 13 +16  1018.9  -2.3  688  263           
09 22.04.18 300 (СЗ) 3{10}  20000 м    10/0 средняя, верхняя 
[Ac lent|Ci fib]
+15.3 -10.1 16 +16  1017.5  -1.4  687  263           
15 22.04.18 тихо ()   н/о    10/0 средняя, верхняя 
[Ac lent|Ci fib]
-0.9 -7.4 61 -1  1024.3  0.4  687  278           
18 22.04.18 тихо ()   н/о    3/0 верхняя 
[Ci fib]
-3.2 -7.2 74 -3  1024.7  -0.5  686  280           
21 22.04.18 тихо ()   н/о    3/0 верхняя 
[Ci fib]
-6.1 -8.2 85 -6  1025.4  -0.5  686  283           
00 23.04.18 тихо ()   20000 м    10/0 средняя, верхняя 
[As trans|Ci fib]
+5.7 -5.4 45 +6  1019.4  -1  685  271  -6.4         
03 23.04.18 210 (ЮЗ) 20000 м    10/3 1000 м средняя 
[Sc|As trans]
+11.6 -6.3 28 +11  1015.6  -1.3  684  265           
06 23.04.18 250 (З) 20000 м    10/3 1000 м средняя, верхняя 
[Sc|Ac und|Ci sp]
+14.4 -6.3 23 +15  1013.3  -1.2  683  262           
09 23.04.18 270 (З) 3{10}  20000 м    6/1 1000 м средняя, верхняя 
[Sc|Ac lent|Ci fib]
+17 -9.8 15 +17  1010.7  -1.5  682  260           
12 23.04.18 270 (З) 2{10}  н/о    4/0 средняя, верхняя 
[Ac lent|Ci fib]
+9.9 -9 25 +10  1013.9  0.5  683  266    +17.3       
15 23.04.18 220 (ЮЗ) н/о    8/0 средняя 
[As trans]
+2.7 -6.4 51 +3  1017.5  0.7  683  273           
18 23.04.18 тихо ()   н/о    1/0 верхняя 
[Ci fib]
-2.4 -6.9 71 -2  1019.7  0.1  683  278           
21 23.04.18 тихо ()   н/о    4/0 средняя, верхняя 
[Ac lent|Ci fib]
-4.7 -7.3 82 -5  1020.7  0.1  683  281           
00 24.04.18 170 (Ю) 20000 м    9/8 1000 м верхняя 
[Sc|Ci fib]
+3.6 -4.6 55 +4  1016.5  -0.6  683  272  -5.2         
03 24.04.18 260 (З) 20000 м    8/3 1000 м верхняя 
[Cu hum|Ci fib]
+17.1 -4.9 22 +17  1008.4  -2.7  681  259           
06 24.04.18 240 (ЮЗ) 20000 м    10/5 1000 м кучево-дожд., верхняя 
[Cb calv|Ci fib]
+18.9 -7 17 +20  1003.9  -3.4  678  256           
09 24.04.18 260 (З) 3{12}  20000 м    10/8 1000 м кучево-дожд., средняя 
[Cb calv|Ac As]
+18.8 -9.2 14 +19  1001  -2.7  676  256           
15 24.04.18 280 (З) н/о    10/1 1000 м средняя 
[Sc diur, vesp|As trans]
+12.7 -5 29 +13  1003.5  0.6  677  261           
18 24.04.18 350 (С) н/о    10/0 средняя, верхняя 
[Ac lent|Ci fib]
+3.4 -3.6 60 +4  1006.2  -0.7  676  269           
21 24.04.18 340 (С) н/о    10/0 средняя, верхняя 
[Ac lent|Ci fib]
+0.4 -3.7 74 1007.9  0.4  676  272           
00 25.04.18 040 (СВ) 20000 м    10/6 1000 м средняя, верхняя 
[Sc diur, vesp|Ac lent|Ci fib]
+5.6 -1.6 60 +6  1007.5  1.6  677  267  -0.5         
Время (UTC), дата Ветер
(°,м/с) 
Видим.   Явления Облачность Т
(°С)
Тd
(°С)
f(%) Тe
(°С)
Pmin
(гПа)
dP
(гПа)
Po
(мм)
O2
(г/м3)
Тmin Tmax R s Состояние
почвы

Для получения пояснительной информации подведите курсор к названию столбца.

ПОГОДА в Багдарине - архив

Всё, что Вы хотите узнать о погоде в Багдарине - удобно и подробно!

Выберите нужную дату (начиная с 1 января 2015* года) и нажмите кнопку "Найти".
Будут отображены архивные сводки погоды по пункту Багдарин, начиная с указанной даты.


Отображать данные в формате CSV (для использования в таблицах Excel)


Внимание! Наш архив погоды предназначен исключительно для личного некоммерческого использования в познавательных целях. Если Вам необходимы официальные справки о состоянии погоды (для производственных, юридических, коммерческих и т.п. целей), обращайтесь в органы Росгидромета.

*Примечание: данная дата относится к архиву по метеостанциям СССР (Россия, СНГ, Балтия).
Архив по метеостанциям Зарубежной Европы и Азии (кроме Китая) хранится 10 дней, по другим регионам земного шара (Китай, Африка, Америка, Австралия, Океания) - 1 день.

Багдарин - район местоположения метеостанции


Название, широта, долгота, высота метеостанции:
Багдарин 54.5°ш. 113.6°д. 903 м над ур. моря [Российская Федерация]

Дополнительная информация

В oтличие oт бoльшинства пoгoдных сайтoв мы публикуем пoдрoбную метеoинфoрмацию в детальнoм прoфессиoнальнoм фoрмате.

Характеристики температуры и влажнoсти вoздуха измеряются на высoте 2 м в тени вдали oт зданий и деревьев.
Скoрoсть ветра измеряется на высoте 10 м (на урoвне рoста челoвека скoрoсть ветра ниже в 1.5-2 раза). Если метеoстанция нахoдится в гoрoде или в лесу, тo скoрoсть ветра занижена на 2-4 м/с пo сравнению с oткрытым местoм. Скoрoсть ветра над акватoриями крупных рек и oзёр, а также на вершинах хoлмoв на 2-5 м/с выше, чем в oбычных услoвиях.
Атмoсфернoе давление в разных тoчках местнoсти мoжет значительнo oтличаться oт давления на метеoстанции, в зависимoсти oт услoвий рельефа (при пoдъёме на 10 м давление пoнижается примернo на 1 мм рт.ст.).